Location: Ettringen
(48.1054°N, 10.6545°E)
Time: 07:01:40
(UTC+00:00)

SL-12 R/B(2) - Pass Details

Date: 18 November 2025
Orbit: 1173 x 2175 km, 63.4° (Epoch: 13 December)

Event Time Altitude Azimuth Distance (km) Brightness Sun altitude
Rises 17:16:14 0° 223° (SW) 4,195 7.7 -16.5°
Reaches altitude 10° 17:18:49 10° 225° (SW) 3,306 7.1 -17.0°
Maximum altitude 17:26:51 81° 312° (NW) 1,497 4.4 -18.3°
Enters shadow 17:35:46 14° 41° (NE) 3,692 6.1 -19.8°
